Time,TemperatureF,DewpointF,PressureIn,WindDirection,WindDirectionDegrees,WindSpeedMPH,WindSpeedGustMPH,Humidity,HourlyPrecipIn,Conditions,Clouds,dailyrainin,SoftwareType,DateUTC
2013-01-09 00:00:00,46.6,22.4,30.21,SE,131,0.0,6.0,38,0.00,,---,0.00,VWS V14.01,2013-01-09 07:00:00,
2013-01-09 00:10:00,45.2,22.3,30.21,SE,131,0.0,0.0,40,0.00,,---,0.00,VWS V14.01,2013-01-09 07:10:00,
2013-01-09 00:20:00,43.6,22.6,30.21,SE,130,0.0,3.0,43,0.00,,---,0.00,VWS V14.01,2013-01-09 07:20:00,
2013-01-09 00:30:00,42.1,22.8,30.21,East,100,0.0,4.0,46,0.00,,---,0.00,VWS V14.01,2013-01-09 07:30:00,
2013-01-09 00:40:00,41.0,22.8,30.21,East,100,0.0,1.0,48,0.00,,---,0.00,VWS V14.01,2013-01-09 07:40:00,
2013-01-09 00:50:00,40.9,22.7,30.22,North,350,7.0,10.0,48,0.00,,---,0.00,VWS V14.01,2013-01-09 07:50:00,
2013-01-09 01:00:00,43.8,23.3,30.22,NNW,347,8.0,13.0,44,0.00,,---,0.00,VWS V14.01,2013-01-09 08:00:00,
2013-01-09 01:10:00,46.3,23.9,30.21,NNW,336,6.0,13.0,41,0.00,,---,0.00,VWS V14.01,2013-01-09 08:10:00,
2013-01-09 01:20:00,46.8,23.2,30.21,NNW,338,13.0,13.0,39,0.00,,---,0.00,VWS V14.01,2013-01-09 08:20:00,
2013-01-09 01:30:00,46.9,23.3,30.21,NNW,347,12.0,14.0,39,0.00,,---,0.00,VWS V14.01,2013-01-09 08:30:00,
2013-01-09 01:40:00,46.8,23.2,30.21,NNW,341,9.0,17.0,39,0.00,,---,0.00,VWS V14.01,2013-01-09 08:40:00,
2013-01-09 01:50:00,46.7,23.1,30.21,NNW,342,8.0,13.0,39,0.00,,---,0.00,VWS V14.01,2013-01-09 08:50:00,
2013-01-09 02:00:00,46.5,22.9,30.22,NNW,328,3.0,12.0,39,0.00,,---,0.00,VWS V14.01,2013-01-09 09:00:00,
2013-01-09 02:10:00,46.2,23.2,30.22,NNW,342,4.0,9.0,40,0.00,,---,0.00,VWS V14.01,2013-01-09 09:10:00,
2013-01-09 02:20:00,45.6,23.3,30.21,NNW,344,1.0,9.0,41,0.00,,---,0.00,VWS V14.01,2013-01-09 09:20:00,
2013-01-09 02:30:00,45.2,23.5,30.22,NNW,336,2.0,5.0,42,0.00,,---,0.00,VWS V14.01,2013-01-09 09:30:00,
2013-01-09 02:40:00,43.2,23.3,30.22,NNW,336,0.0,4.0,45,0.00,,---,0.00,VWS V14.01,2013-01-09 09:40:00,
2013-01-09 02:50:00,41.3,22.6,30.22,NNW,336,0.0,2.0,47,0.00,,---,0.00,VWS V14.01,2013-01-09 09:50:00,
2013-01-09 03:00:00,39.9,22.8,30.23,NNW,336,0.0,1.0,50,0.00,,---,0.00,VWS V14.01,2013-01-09 10:00:00,
2013-01-09 03:10:00,38.5,22.9,30.22,NNW,336,3.0,3.0,53,0.00,,---,0.00,VWS V14.01,2013-01-09 10:10:00,
2013-01-09 03:20:00,37.2,23.0,30.22,NNW,336,2.0,4.0,56,0.00,,---,0.00,VWS V14.01,2013-01-09 10:20:00,
2013-01-09 07:10:00,37.3,23.1,30.26,SSE,158,1.0,5.0,56,0.00,,---,0.00,VWS V14.01,2013-01-09 14:10:00,
2013-01-09 07:30:00,35.9,23.0,30.26,SSE,155,2.0,2.0,59,0.00,,---,0.00,VWS V14.01,2013-01-09 14:30:00,
2013-01-09 07:40:00,35.3,22.8,30.26,SSE,155,0.0,3.0,60,0.00,,---,0.00,VWS V14.01,2013-01-09 14:40:00,
2013-01-09 07:50:00,34.8,22.7,30.27,SSE,155,2.0,3.0,61,0.00,,---,0.00,VWS V14.01,2013-01-09 14:50:00,
2013-01-09 08:00:00,34.6,22.9,30.28,SSE,155,0.0,3.0,62,0.00,,---,0.00,VWS V14.01,2013-01-09 15:00:00,
2013-01-09 08:10:00,34.8,23.5,30.28,SSE,155,3.0,3.0,63,0.00,,---,0.00,VWS V14.01,2013-01-09 15:10:00,
2013-01-09 08:20:00,35.1,23.4,30.28,SSE,155,0.0,3.0,62,0.00,,---,0.00,VWS V14.01,2013-01-09 15:20:00,
2013-01-09 08:30:00,35.2,24.3,30.27,SSE,155,0.0,0.0,64,0.00,,---,0.00,VWS V14.01,2013-01-09 15:30:00,
2013-01-09 08:40:00,35.7,24.4,30.27,SSE,155,0.0,1.0,63,0.00,,---,0.00,VWS V14.01,2013-01-09 15:40:00,
2013-01-09 08:50:00,36.5,24.7,30.27,SSE,155,0.0,0.0,62,0.00,,---,0.00,VWS V14.01,2013-01-09 15:50:00,
2013-01-09 09:00:00,38.1,25.1,30.27,SSE,155,0.0,1.0,59,0.00,,---,0.00,VWS V14.01,2013-01-09 16:00:00,
2013-01-09 09:10:00,39.9,25.1,30.26,SSE,155,4.0,4.0,55,0.00,,---,0.00,VWS V14.01,2013-01-09 16:10:00,
2013-01-09 09:20:00,43.0,24.7,30.26,SSE,155,1.0,4.0,48,0.00,,---,0.00,VWS V14.01,2013-01-09 16:20:00,
2013-01-09 09:30:00,45.8,25.1,30.25,SSE,154,0.0,6.0,44,0.00,,---,0.00,VWS V14.01,2013-01-09 16:30:00,
2013-01-09 09:40:00,48.1,24.3,30.25,NW,320,2.0,6.0,39,0.00,,---,0.00,VWS V14.01,2013-01-09 16:40:00,
2013-01-09 09:50:00,49.7,23.9,30.25,NW,315,3.0,6.0,36,0.00,,---,0.00,VWS V14.01,2013-01-09 16:50:00,
2013-01-09 10:00:00,50.9,24.2,30.24,NNW,336,2.0,6.0,35,0.00,,---,0.00,VWS V14.01,2013-01-09 17:00:00,
2013-01-09 10:10:00,51.7,24.3,30.25,NW,307,0.0,5.0,34,0.00,,---,0.00,VWS V14.01,2013-01-09 17:10:00,
2013-01-09 10:20:00,53.0,24.7,30.25,NW,307,0.0,3.0,33,0.00,,---,0.00,VWS V14.01,2013-01-09 17:20:00,
2013-01-09 10:30:00,54.5,23.7,30.25,SSE,164,4.0,6.0,30,0.00,,---,0.00,VWS V14.01,2013-01-09 17:30:00,
2013-01-09 10:40:00,55.4,25.3,30.25,SE,144,2.0,6.0,31,0.00,,---,0.00,VWS V14.01,2013-01-09 17:40:00,
2013-01-09 10:50:00,56.0,26.6,30.24,SE,126,0.0,5.0,32,0.00,,---,0.00,VWS V14.01,2013-01-09 17:50:00,
2013-01-09 11:00:00,56.5,25.5,30.24,SE,126,3.0,5.0,30,0.00,,---,0.00,VWS V14.01,2013-01-09 18:00:00,
2013-01-09 11:10:00,57.1,24.3,30.24,SE,126,2.0,5.0,28,0.00,,---,0.00,VWS V14.01,2013-01-09 18:10:00,
2013-01-09 11:20:00,57.0,25.1,30.23,SE,126,1.0,3.0,29,0.00,,---,0.00,VWS V14.01,2013-01-09 18:20:00,
2013-01-09 11:30:00,57.3,24.5,30.22,SE,126,1.0,6.0,28,0.00,,---,0.00,VWS V14.01,2013-01-09 18:30:00,
2013-01-09 11:40:00,57.8,24.1,30.21,SE,126,0.0,5.0,27,0.00,,---,0.00,VWS V14.01,2013-01-09 18:40:00,
2013-01-09 11:50:00,58.6,24.8,30.20,SE,132,0.0,6.0,27,0.00,,---,0.00,VWS V14.01,2013-01-09 18:50:00,
2013-01-09 12:00:00,59.5,24.6,30.19,SE,134,0.0,4.0,26,0.00,,---,0.00,VWS V14.01,2013-01-09 19:00:00,
2013-01-09 12:10:00,60.0,24.1,30.18,SSW,200,4.0,5.0,25,0.00,,---,0.00,VWS V14.01,2013-01-09 19:10:00,
2013-01-09 12:20:00,60.0,23.1,30.16,SW,234,0.0,4.0,24,0.00,,---,0.00,VWS V14.01,2013-01-09 19:20:00,
2013-01-09 12:30:00,60.5,24.5,30.15,SW,234,0.0,2.0,25,0.00,,---,0.00,VWS V14.01,2013-01-09 19:30:00,
2013-01-09 12:40:00,61.2,24.1,30.14,SW,234,0.0,3.0,24,0.00,,---,0.00,VWS V14.01,2013-01-09 19:40:00,
2013-01-09 12:50:00,62.1,22.8,30.14,WNW,294,2.0,5.0,22,0.00,,---,0.00,VWS V14.01,2013-01-09 19:50:00,
2013-01-09 13:00:00,62.4,23.1,30.13,NNW,327,3.0,5.0,22,0.00,,---,0.00,VWS V14.01,2013-01-09 20:00:00,
2013-01-09 13:10:00,62.6,24.3,30.13,NW,319,0.0,5.0,23,0.00,,---,0.00,VWS V14.01,2013-01-09 20:10:00,
2013-01-09 13:20:00,63.1,24.7,30.12,NW,308,2.0,4.0,23,0.00,,---,0.00,VWS V14.01,2013-01-09 20:20:00,
2013-01-09 13:30:00,64.1,24.5,30.12,SSW,209,3.0,4.0,22,0.00,,---,0.00,VWS V14.01,2013-01-09 20:30:00,
2013-01-09 13:40:00,64.8,24.0,30.12,South,183,0.0,6.0,21,0.00,,---,0.00,VWS V14.01,2013-01-09 20:40:00,
2013-01-09 13:50:00,65.2,26.5,30.11,South,179,3.0,6.0,23,0.00,,---,0.00,VWS V14.01,2013-01-09 20:50:00,
2013-01-09 14:00:00,65.2,26.5,30.11,SSW,208,3.0,7.0,23,0.00,,---,0.00,VWS V14.01,2013-01-09 21:00:00,
2013-01-09 14:10:00,65.3,26.6,30.11,SSE,152,4.0,10.0,23,0.00,,---,0.00,VWS V14.01,2013-01-09 21:10:00,
2013-01-09 14:20:00,65.6,25.8,30.10,SSE,147,4.0,7.0,22,0.00,,---,0.00,VWS V14.01,2013-01-09 21:20:00,
2013-01-09 14:30:00,65.8,25.9,30.09,SSE,148,4.0,6.0,22,0.00,,---,0.00,VWS V14.01,2013-01-09 21:30:00,
2013-01-09 14:40:00,66.0,25.0,30.09,SSE,149,1.0,7.0,21,0.00,,---,0.00,VWS V14.01,2013-01-09 21:40:00,
2013-01-09 14:50:00,66.3,25.2,30.09,SSE,149,2.0,6.0,21,0.00,,---,0.00,VWS V14.01,2013-01-09 21:50:00,
2013-01-09 15:00:00,66.7,20.5,30.08,SSE,149,0.0,2.0,17,0.00,,---,0.00,VWS V14.01,2013-01-09 22:00:00,
2013-01-09 15:10:00,66.6,20.5,30.08,SSE,149,2.0,5.0,17,0.00,,---,0.00,VWS V14.01,2013-01-09 22:10:00,
2013-01-09 15:20:00,66.8,22.0,30.08,SSE,154,3.0,5.0,18,0.00,,---,0.00,VWS V14.01,2013-01-09 22:20:00,
2013-01-09 15:30:00,66.6,19.0,30.08,SSE,155,0.0,4.0,16,0.00,,---,0.00,VWS V14.01,2013-01-09 22:30:00,
2013-01-09 15:40:00,66.2,20.1,30.08,SSE,157,5.0,5.0,17,0.00,,---,0.00,VWS V14.01,2013-01-09 22:40:00,
2013-01-09 15:50:00,65.5,20.9,30.08,SSE,159,5.0,5.0,18,0.00,,---,0.00,VWS V14.01,2013-01-09 22:50:00,
2013-01-09 16:00:00,65.0,19.2,30.08,SSE,157,3.0,6.0,17,0.00,,---,0.00,VWS V14.01,2013-01-09 23:00:00,
2013-01-09 16:10:00,64.8,19.0,30.07,SSE,157,0.0,4.0,17,0.00,,---,0.00,VWS V14.01,2013-01-09 23:10:00,
2013-01-09 16:20:00,64.9,17.7,30.06,SSE,157,0.0,3.0,16,0.00,,---,0.00,VWS V14.01,2013-01-09 23:20:00,
2013-01-09 16:30:00,65.0,17.8,30.06,SSE,157,0.0,1.0,16,0.00,,---,0.00,VWS V14.01,2013-01-09 23:30:00,
2013-01-09 16:40:00,64.3,23.6,30.05,SSE,157,0.0,1.0,21,0.00,,---,0.00,VWS V14.01,2013-01-09 23:40:00,
2013-01-09 16:50:00,61.9,23.7,30.06,SSE,157,0.0,0.0,23,0.00,,---,0.00,VWS V14.01,2013-01-09 23:50:00,
2013-01-09 17:00:00,59.4,24.5,30.05,SSE,157,0.0,0.0,26,0.00,,---,0.00,VWS V14.01,2013-01-10 00:00:00,
2013-01-09 17:10:00,56.6,24.7,30.05,SSE,157,0.0,0.0,29,0.00,,---,0.00,VWS V14.01,2013-01-10 00:10:00,
2013-01-09 17:20:00,54.2,24.2,30.05,SSE,157,0.0,1.0,31,0.00,,---,0.00,VWS V14.01,2013-01-10 00:20:00,
2013-01-09 17:30:00,52.1,23.9,30.05,SSE,157,0.0,1.0,33,0.00,,---,0.00,VWS V14.01,2013-01-10 00:30:00,
2013-01-09 17:40:00,50.2,24.3,30.05,SSE,157,0.0,2.0,36,0.00,,---,0.00,VWS V14.01,2013-01-10 00:40:00,
2013-01-09 17:50:00,48.7,23.6,30.05,SSE,157,0.0,0.0,37,0.00,,---,0.00,VWS V14.01,2013-01-10 00:50:00,
2013-01-09 18:00:00,47.5,23.8,30.05,SSE,157,0.0,0.0,39,0.00,,---,0.00,VWS V14.01,2013-01-10 01:00:00,
2013-01-09 18:10:00,46.3,25.0,30.05,SSE,157,0.0,2.0,43,0.00,,---,0.00,VWS V14.01,2013-01-10 01:10:00,
2013-01-09 18:20:00,45.2,24.6,30.05,SSE,157,0.0,0.0,44,0.00,,---,0.00,VWS V14.01,2013-01-10 01:20:00,
2013-01-09 18:30:00,44.2,24.2,30.05,SSE,157,0.0,0.0,45,0.00,,---,0.00,VWS V14.01,2013-01-10 01:30:00,
2013-01-09 18:40:00,43.3,24.4,30.05,SSE,157,0.0,0.0,47,0.00,,---,0.00,VWS V14.01,2013-01-10 01:40:00,
2013-01-09 18:50:00,42.5,25.7,30.06,SSE,157,0.0,0.0,51,0.00,,---,0.00,VWS V14.01,2013-01-10 01:50:00,
2013-01-09 19:00:00,41.8,26.4,30.05,SSE,157,0.0,0.0,54,0.00,,---,0.00,VWS V14.01,2013-01-10 02:00:00,
2013-01-09 19:10:00,41.2,25.8,30.06,SSE,157,0.0,0.0,54,0.00,,---,0.00,VWS V14.01,2013-01-10 02:10:00,
2013-01-09 19:20:00,40.8,26.3,30.06,SSE,157,0.0,1.0,56,0.00,,---,0.00,VWS V14.01,2013-01-10 02:20:00,
2013-01-09 19:30:00,40.6,25.7,30.05,SSE,157,0.0,1.0,55,0.00,,---,0.00,VWS V14.01,2013-01-10 02:30:00,
2013-01-09 19:40:00,40.3,25.4,30.05,SSE,157,0.0,0.0,55,0.00,,---,0.00,VWS V14.01,2013-01-10 02:40:00,
2013-01-09 19:50:00,40.1,24.8,30.04,SSE,157,0.0,0.0,54,0.00,,---,0.00,VWS V14.01,2013-01-10 02:50:00,
2013-01-09 20:00:00,40.1,24.8,30.04,SSE,157,0.0,2.0,54,0.00,,---,0.00,VWS V14.01,2013-01-10 03:00:00,
2013-01-09 20:10:00,40.0,24.7,30.04,SSE,157,2.0,3.0,54,0.00,,---,0.00,VWS V14.01,2013-01-10 03:10:00,
2013-01-09 20:20:00,39.9,24.2,30.05,SSE,157,2.0,3.0,53,0.00,,---,0.00,VWS V14.01,2013-01-10 03:20:00,
2013-01-09 20:30:00,39.9,24.2,30.04,SSE,157,0.0,2.0,53,0.00,,---,0.00,VWS V14.01,2013-01-10 03:30:00,
2013-01-09 20:40:00,39.7,23.5,30.04,SSE,157,0.0,0.0,52,0.00,,---,0.00,VWS V14.01,2013-01-10 03:40:00,
2013-01-09 20:50:00,39.3,24.1,30.04,SSE,157,0.0,0.0,54,0.00,,---,0.00,VWS V14.01,2013-01-10 03:50:00,
2013-01-09 21:00:00,38.8,23.1,30.03,SSE,157,0.0,1.0,53,0.00,,---,0.00,VWS V14.01,2013-01-10 04:00:00,
2013-01-09 21:10:00,38.6,23.8,30.03,SSE,157,1.0,2.0,55,0.00,,---,0.00,VWS V14.01,2013-01-10 04:10:00,
2013-01-09 21:20:00,38.4,23.7,30.04,SSE,157,1.0,2.0,55,0.00,,---,0.00,VWS V14.01,2013-01-10 04:20:00,
2013-01-09 21:30:00,38.2,23.5,30.03,SSE,157,0.0,2.0,55,0.00,,---,0.00,VWS V14.01,2013-01-10 04:30:00,
2013-01-09 21:40:00,37.9,23.6,30.03,SSE,157,0.0,2.0,56,0.00,,---,0.00,VWS V14.01,2013-01-10 04:40:00,
2013-01-09 21:50:00,37.7,23.4,30.03,SSE,157,0.0,1.0,56,0.00,,---,0.00,VWS V14.01,2013-01-10 04:50:00,
2013-01-09 22:00:00,37.4,24.0,30.03,SSE,157,0.0,0.0,58,0.00,,---,0.00,VWS V14.01,2013-01-10 05:00:00,
2013-01-09 22:10:00,37.0,23.2,30.04,SSE,157,0.0,1.0,57,0.00,,---,0.00,VWS V14.01,2013-01-10 05:10:00,
2013-01-09 22:20:00,36.7,23.3,30.04,SSE,157,1.0,1.0,58,0.00,,---,0.00,VWS V14.01,2013-01-10 05:20:00,
2013-01-09 22:30:00,36.6,23.6,30.04,SSE,157,0.0,2.0,59,0.00,,---,0.00,VWS V14.01,2013-01-10 05:30:00,
2013-01-09 22:40:00,36.5,23.5,30.04,SSE,157,3.0,3.0,59,0.00,,---,0.00,VWS V14.01,2013-01-10 05:40:00,
2013-01-09 22:50:00,36.3,23.4,30.03,SSE,157,0.0,3.0,59,0.00,,---,0.00,VWS V14.01,2013-01-10 05:50:00,
2013-01-09 23:00:00,36.0,23.5,30.04,SSE,157,0.0,3.0,60,0.00,,---,0.00,VWS V14.01,2013-01-10 06:00:00,
2013-01-09 23:10:00,35.7,23.6,30.04,SSE,157,0.0,3.0,61,0.00,,---,0.00,VWS V14.01,2013-01-10 06:10:00,
2013-01-09 23:20:00,35.4,23.7,30.04,SSE,157,2.0,3.0,62,0.00,,---,0.00,VWS V14.01,2013-01-10 06:20:00,
2013-01-09 23:30:00,35.1,23.8,30.05,SSE,157,0.0,2.0,63,0.00,,---,0.00,VWS V14.01,2013-01-10 06:30:00,
2013-01-09 23:40:00,34.8,23.9,30.05,SSE,157,2.0,3.0,64,0.00,,---,0.00,VWS V14.01,2013-01-10 06:40:00,
2013-01-09 23:50:00,34.7,23.4,30.05,SSE,157,0.0,3.0,63,0.00,,---,0.00,VWS V14.01,2013-01-10 06:50:00,